TimeMST,TemperatureF,Dew PointF,Humidity,Sea Level PressureIn,VisibilityMPH,Wind Direction,Wind SpeedMPH,Gust SpeedMPH,PrecipitationIn,Events,Conditions,WindDirDegrees,DateUTC
12:58 AM,31.5,13.3,47,30.26,10.0,ESE,10.4,-,N/A,,Clear,110,2014-02-17 07:58:00
1:58 AM,31.3,15.4,52,30.23,10.0,ESE,8.1,-,N/A,,Clear,120,2014-02-17 08:58:00
2:58 AM,32.5,12.0,43,30.22,10.0,East,8.1,-,N/A,,Clear,100,2014-02-17 09:58:00
3:58 AM,31.6,12.7,46,30.20,10.0,ESE,9.2,-,N/A,,Clear,110,2014-02-17 10:58:00
4:58 AM,31.3,13.5,48,30.20,10.0,ESE,8.1,-,N/A,,Clear,110,2014-02-17 11:58:00
5:58 AM,29.5,13.3,51,30.17,10.0,ESE,12.7,-,N/A,,Clear,110,2014-02-17 12:58:00
6:58 AM,30.2,12.7,48,30.16,10.0,ESE,12.7,-,N/A,,Clear,110,2014-02-17 13:58:00
7:58 AM,31.3,10.9,43,30.13,10.0,ESE,12.7,-,N/A,,Clear,120,2014-02-17 14:58:00
8:58 AM,32.4,11.7,42,30.12,10.0,ESE,15.0,-,N/A,,Clear,110,2014-02-17 15:58:00
9:58 AM,36.7,9.3,32,30.11,10.0,ESE,10.4,-,N/A,,Clear,110,2014-02-17 16:58:00
10:58 AM,40.1,8.6,27,30.09,10.0,SSE,5.8,-,N/A,,Scattered Clouds,150,2014-02-17 17:58:00
11:58 AM,43.7,8.1,23,30.06,10.0,East,3.5,-,N/A,,Scattered Clouds,90,2014-02-17 18:58:00
12:58 PM,47.3,3.7,17,30.01,10.0,South,11.5,-,N/A,,Scattered Clouds,170,2014-02-17 19:58:00
1:58 PM,49.8,4.3,16,29.97,10.0,SSE,10.4,-,N/A,,Partly Cloudy,160,2014-02-17 20:58:00
2:58 PM,51.1,3.6,14,29.94,10.0,SSW,9.2,-,N/A,,Clear,200,2014-02-17 21:58:00
3:58 PM,51.8,1.6,13,29.92,10.0,South,11.5,-,N/A,,Partly Cloudy,190,2014-02-17 22:58:00
4:58 PM,52.3,2.3,13,29.90,10.0,SW,10.4,-,N/A,,Clear,230,2014-02-17 23:58:00
5:58 PM,46.6,11.5,24,29.93,10.0,West,5.8,-,N/A,,Clear,280,2014-02-18 00:58:00
6:58 PM,43.2,13.3,30,29.94,10.0,South,3.5,-,N/A,,Clear,170,2014-02-18 01:58:00
7:58 PM,42.1,12.9,31,29.91,10.0,South,15.0,-,N/A,,Clear,170,2014-02-18 02:58:00
8:58 PM,43.5,10.2,26,29.91,10.0,South,11.5,-,N/A,,Clear,180,2014-02-18 03:58:00
9:58 PM,41.2,9.7,28,29.90,10.0,Variable,1.2,-,N/A,,Clear,0,2014-02-18 04:58:00
10:58 PM,42.3,10.6,27,29.90,10.0,NE,4.6,-,N/A,,Overcast,40,2014-02-18 05:58:00
11:58 PM,39.4,10.0,30,29.92,10.0,South,4.6,-,N/A,,Clear,190,2014-02-18 06:58:00